Home   Weather   Northeim   Past weeks

Flag for Germany Past Weather in Northeim, Lower Saxony, Germany — Yesterday and Last 2 Weeks

Now
79 °F

Passing clouds.


Feels Like: 79 °F
Forecast: 55 / 76 °F
Wind: 8 mph from Southwest

Location: Kassel / Calden

Current Time: Aug 31, 2016 at 4:28:18 PM

Latest Report: Aug 31, 2016 at 3:50 PM


Visibility: N/A

Pressure: 30.12 "Hg

Humidity: 37%

Dew Point: 50 °F

Location of NortheimLocation

Past Weather in Northeim — Graph

°F

Northeim Temperature Yesterday

Maximum temperature yesterday: 72 °F (at 3:50 PM)
Minimum temperature yesterday: 50 °F (at 7:20 AM)
Average temperature yesterday: 65 °F

High & Low Weather Summary for the Past Weeks

 TemperatureHumidityPressure
High93 °F (Aug 26, 3:50 PM)100% (Aug 17, 7:20 AM)30.36 "Hg (Aug 17, 7:20 AM)
Low48 °F (Aug 17, 7:20 AM)20% (Aug 25, 5:20 PM)29.80 "Hg (Aug 18, 3:50 PM)
Average72 °F58%30.08 "Hg
* Reported Aug 16 2:20 PM — Aug 31 2:50 PM, Northeim, Weather by CustomWeather, © 2016

Note: Actual official high and low records may vary slightly from our data, if they occured in-between our weather recording intervals... More about our weather records

Advertising

Northeim Weather History for the Previous 24 Hours

Scroll right to see more
 ConditionsComfort  
Time TempWeatherWind HumidityBarometerVisibility
2:50 PM
Wed, Aug 31
77 °FSunny.3 mph39%30.15 "Hg10 mi
2:20 PM77 °FSunny.9 mph42%30.15 "Hg10 mi
1:50 PM75 °FSunny.8 mph41%30.15 "Hg10 mi
1:20 PM73 °FSunny.10 mph44%30.18 "Hg10 mi
12:50 PM73 °FSunny.9 mph44%30.18 "Hg10 mi
12:20 PM73 °FSunny.N/A47%30.18 "Hg10 mi
11:50 AM70 °FSunny.3 mph50%30.18 "Hg10 mi
11:20 AM68 °FSunny.6 mph53%30.18 "Hg10 mi
10:50 AM68 °FSunny.7 mph53%30.21 "Hg10 mi
10:20 AM64 °FSunny.7 mph56%30.21 "Hg10 mi
9:50 AM64 °FSunny.6 mph60%30.21 "Hg10 mi
9:20 AM59 °FSunny.5 mph72%30.21 "Hg10 mi
8:50 AM57 °FSunny.3 mph77%30.21 "Hg10 mi
8:20 AM52 °FSunny.1 mph94%30.21 "Hg10 mi
7:50 AM50 °FSunny.1 mph100%30.21 "Hg10 mi
7:20 AM48 °FClear.1 mph100%30.21 "Hg10 mi
9:20 PM
Tue, Aug 30
59 °FClear.5 mph72%30.27 "Hg10 mi
8:50 PM63 °FSunny.2 mph59%30.27 "Hg10 mi
8:20 PM66 °FSunny.5 mph49%30.27 "Hg10 mi
7:50 PM66 °FSunny.5 mph49%30.27 "Hg10 mi
7:20 PM70 °FSunny.7 mph40%30.27 "Hg10 mi
6:50 PM70 °FSunny.3 mph43%30.27 "Hg10 mi
6:20 PM72 °FSunny.8 mph33%30.27 "Hg10 mi
5:50 PM72 °FSunny.8 mph41%30.27 "Hg10 mi
5:20 PM72 °FSunny.8 mph41%30.27 "Hg10 mi
4:50 PM72 °FSunny.5 mph41%30.27 "Hg10 mi
4:20 PM72 °FSunny.6 mph41%30.27 "Hg10 mi
Weather by CustomWeather, © 2016

See weather overviewHow to use our weather pages